BAW6CH LFMN-EGLL

Flight info

Callsign BAW6CH
Flight time N/A
Altitude 38000
Route BADOD DCT NEDRU DCT LTP DCT BULOL DCT IDAVO DCT BAGBI DCT SIZZA DCT LAULY DCT BRY DCT CLM DCT KOPOR DCT ABNUR DCT DIMAL DCT ALESO
Aircraft A20N/M-SDE2E3FGHIRWXY/LB1

Departure

Time 2026-05-06 18:18
Airport Nice-Côte d'Azur Airport (LFMN)

Arrival

Time N/A
Airport London Heathrow Airport (EGLL)
Time Latitude Longitude Altitude Speed Heading
2026-05-06 18:04 43.66536 7.21575 22 ft 0 kts 313°
2026-05-06 18:10 43.66534 7.21577 22 ft 3 kts 314°
2026-05-06 18:11 43.66526 7.21588 24 ft 0 kts 318°
2026-05-06 18:11 43.66525 7.21589 24 ft 2 kts 319°
2026-05-06 18:11 43.66498 7.21624 23 ft 5 kts 358°
2026-05-06 18:11 43.66472 7.21615 25 ft 1 kts 24°
2026-05-06 18:12 43.66466 7.21611 26 ft 0 kts 43°
2026-05-06 18:12 43.66467 7.21611 24 ft 0 kts 43°
2026-05-06 18:14 43.66472 7.21618 24 ft 5 kts 43°
2026-05-06 18:14 43.66529 7.21698 24 ft 18 kts 46°
2026-05-06 18:14 43.66627 7.21834 23 ft 19 kts 50°
2026-05-06 18:14 43.66614 7.21933 22 ft 14 kts 146°
2026-05-06 18:15 43.66539 7.22020 23 ft 13 kts 176°
2026-05-06 18:15 43.66466 7.22022 22 ft 7 kts 154°
2026-05-06 18:15 43.66425 7.22036 22 ft 6 kts 153°
2026-05-06 18:15 43.66437 7.22143 25 ft 15 kts 53°
2026-05-06 18:16 43.66404 7.22235 23 ft 15 kts 122°
2026-05-06 18:16 43.66386 7.22376 23 ft 18 kts 58°
2026-05-06 18:16 43.66488 7.22521 21 ft 25 kts 44°
2026-05-06 18:16 43.66580 7.22689 23 ft 20 kts 89°
2026-05-06 18:17 43.66490 7.22745 24 ft 13 kts 224°
2026-05-06 18:17 43.66467 7.22715 23 ft 3 kts 223°
2026-05-06 18:17 43.66439 7.22678 22 ft 8 kts 223°
2026-05-06 18:17 43.66385 7.22607 22 ft 12 kts 225°
2026-05-06 18:18 43.66316 7.22505 24 ft 33 kts 224°
2026-05-06 18:18 43.65873 7.21904 23 ft 137 kts 226°
2026-05-06 18:18 43.65074 7.20825 622 ft 144 kts 224°
2026-05-06 18:18 43.64438 7.20021 2187 ft 127 kts 226°
2026-05-06 18:19 43.63770 7.18995 2961 ft 154 kts 230°
2026-05-06 18:19 43.62969 7.17972 4131 ft 159 kts 219°
2026-05-06 18:19 43.62006 7.17039 5079 ft 179 kts 218°
2026-05-06 18:19 43.60949 7.16067 6209 ft 183 kts 214°
2026-05-06 18:20 43.59840 7.15212 7447 ft 185 kts 212°
2026-05-06 18:20 43.58641 7.14428 8605 ft 202 kts 199°
2026-05-06 18:20 43.57105 7.14430 9338 ft 246 kts 171°
2026-05-06 18:20 43.55334 7.15032 10130 ft 263 kts 181°
2026-05-06 18:21 43.53538 7.14683 10914 ft 271 kts 204°
2026-05-06 18:21 43.51999 7.13349 10802 ft 254 kts 229°
2026-05-06 18:21 43.51157 7.11343 10437 ft 237 kts 256°
2026-05-06 18:21 43.51180 7.09155 10074 ft 227 kts 285°
2026-05-06 18:22 43.52082 7.07352 9836 ft 248 kts 321°
2026-05-06 18:22 43.53782 7.06522 9914 ft 276 kts 354°
2026-05-06 18:22 43.55736 7.06786 10261 ft 284 kts
2026-05-06 18:22 43.57668 7.06585 10700 ft 277 kts 339°
2026-05-06 18:23 43.59406 7.05518 11174 ft 273 kts 326°
2026-05-06 18:23 43.61025 7.04135 11601 ft 273 kts 323°
2026-05-06 18:23 43.62625 7.02715 12062 ft 274 kts 323°
2026-05-06 18:23 43.64249 7.01335 12534 ft 275 kts 324°
2026-05-06 18:24 43.65884 7.00009 13000 ft 275 kts 326°
2026-05-06 18:24 43.67552 6.98698 13489 ft 276 kts 326°
2026-05-06 18:24 43.69221 6.97419 13944 ft 275 kts 326°
2026-05-06 18:24 43.70903 6.96150 14382 ft 277 kts 326°
2026-05-06 18:25 43.72593 6.94864 14830 ft 278 kts 326°
2026-05-06 18:25 43.74285 6.93564 15269 ft 279 kts 325°
2026-05-06 18:25 43.75982 6.92254 15733 ft 279 kts 325°
2026-05-06 18:25 43.77681 6.90939 16206 ft 279 kts 325°
2026-05-06 18:26 43.79374 6.89630 16658 ft 278 kts 325°
2026-05-06 18:26 43.81062 6.88327 17131 ft 277 kts 324°
2026-05-06 18:26 43.82748 6.87026 17636 ft 276 kts 324°
2026-05-06 18:26 43.84422 6.85734 18116 ft 274 kts 324°
2026-05-06 18:27 43.86088 6.84453 18547 ft 272 kts 324°
2026-05-06 18:27 43.87740 6.83183 19009 ft 269 kts 324°
2026-05-06 18:27 43.89353 6.81948 19440 ft 266 kts 323°
2026-05-06 18:27 43.90965 6.80715 19880 ft 263 kts 322°
2026-05-06 18:28 43.92557 6.79498 20332 ft 259 kts 322°
2026-05-06 18:28 43.94118 6.78306 20790 ft 254 kts 321°
2026-05-06 18:28 43.95649 6.77137 21251 ft 248 kts 320°
2026-05-06 18:28 43.97146 6.75994 21704 ft 242 kts 319°
2026-05-06 18:29 43.98621 6.74862 22067 ft 241 kts 318°
2026-05-06 18:29 44.00082 6.73731 22352 ft 241 kts 318°
2026-05-06 18:29 44.01535 6.72601 22610 ft 243 kts 317°
2026-05-06 18:29 44.03012 6.71446 22909 ft 245 kts 317°
2026-05-06 18:30 44.04484 6.70288 23197 ft 243 kts 317°
2026-05-06 18:30 44.05959 6.69136 23466 ft 244 kts 317°
2026-05-06 18:30 44.07441 6.67975 23643 ft 245 kts 317°
2026-05-06 18:30 44.08933 6.66811 23867 ft 246 kts 317°
2026-05-06 18:31 44.10437 6.65643 24074 ft 247 kts 317°
2026-05-06 18:31 44.11940 6.64475 24285 ft 248 kts 317°
2026-05-06 18:31 44.13453 6.63297 24483 ft 249 kts 317°
2026-05-06 18:31 44.14967 6.62117 24678 ft 251 kts 316°
2026-05-06 18:32 44.16500 6.60922 24891 ft 252 kts 316°
2026-05-06 18:32 44.18030 6.59731 25099 ft 252 kts 316°
2026-05-06 18:32 44.19547 6.58546 25327 ft 253 kts 316°
2026-05-06 18:32 44.21092 6.57340 25543 ft 256 kts 316°
2026-05-06 18:33 44.22648 6.56127 25781 ft 256 kts 316°
2026-05-06 18:33 44.24201 6.54919 25972 ft 255 kts 316°
2026-05-06 18:33 44.25751 6.53711 26099 ft 257 kts 317°
2026-05-06 18:33 44.27317 6.52485 26268 ft 256 kts 316°
2026-05-06 18:34 44.28876 6.51259 26411 ft 258 kts 316°
2026-05-06 18:34 44.30436 6.50039 26527 ft 257 kts 316°
2026-05-06 18:34 44.31997 6.48820 26588 ft 259 kts 316°
2026-05-06 18:34 44.33574 6.47579 26698 ft 259 kts 316°
2026-05-06 18:35 44.35145 6.46351 26817 ft 259 kts 316°
2026-05-06 18:35 44.36723 6.45116 26914 ft 259 kts 317°
2026-05-06 18:35 44.38298 6.43886 26986 ft 260 kts 317°
2026-05-06 18:35 44.39885 6.42644 27105 ft 261 kts 317°
2026-05-06 18:36 44.41450 6.41421 27173 ft 261 kts 317°
2026-05-06 18:36 44.43054 6.40167 27248 ft 261 kts 316°
2026-05-06 18:36 44.44626 6.38929 27380 ft 263 kts 317°
2026-05-06 18:36 44.46225 6.37672 27458 ft 263 kts 317°
2026-05-06 18:37 44.47826 6.36415 27619 ft 264 kts 317°
2026-05-06 18:37 44.48890 6.35579 27719 ft 264 kts 317°
2026-05-06 18:37 44.51038 6.33888 27907 ft 266 kts 317°
2026-05-06 18:37 44.52653 6.32617 28027 ft 267 kts 317°
2026-05-06 18:38 44.54278 6.31336 28152 ft 267 kts 317°
2026-05-06 18:38 44.55899 6.30059 28291 ft 268 kts 316°
2026-05-06 18:38 44.57526 6.28776 28437 ft 269 kts 316°
2026-05-06 18:38 44.59161 6.27485 28568 ft 270 kts 316°
2026-05-06 18:39 44.60801 6.26191 28707 ft 271 kts 316°
2026-05-06 18:39 44.62446 6.24891 28785 ft 272 kts 316°
2026-05-06 18:39 44.64093 6.23587 28966 ft 272 kts 316°
2026-05-06 18:40 44.67403 6.20968 29198 ft 274 kts 316°
2026-05-06 18:40 44.69063 6.19653 29329 ft 274 kts 316°
2026-05-06 18:40 44.70723 6.18337 29530 ft 273 kts 316°
2026-05-06 18:40 44.72368 6.17043 29781 ft 270 kts 315°
2026-05-06 18:41 44.74007 6.15748 29857 ft 271 kts 315°
2026-05-06 18:41 44.75601 6.14414 29930 ft 267 kts 309°
2026-05-06 18:41 44.76889 6.12660 29868 ft 248 kts 285°
2026-05-06 18:41 44.77225 6.10466 29307 ft 226 kts 247°
2026-05-06 18:42 44.76311 6.08730 28449 ft 235 kts 207°
2026-05-06 18:42 44.74602 6.08538 27503 ft 273 kts 166°
2026-05-06 18:42 44.73492 6.09507 27040 ft 299 kts 138°
2026-05-06 18:42 44.72588 6.12217 26615 ft 321 kts 97°
2026-05-06 18:43 44.73023 6.15290 26297 ft 327 kts 55°
2026-05-06 18:43 44.74615 6.17437 25891 ft 313 kts 16°
2026-05-06 18:43 44.76667 6.18227 26027 ft 301 kts 355°
2026-05-06 18:43 44.78721 6.18107 26507 ft 296 kts 333°
2026-05-06 18:44 44.80508 6.16797 26645 ft 291 kts 304°
2026-05-06 18:44 44.81856 6.14576 26556 ft 311 kts 296°
2026-05-06 18:44 44.82950 6.11834 26366 ft 335 kts 288°
2026-05-06 18:44 44.84215 6.08920 26228 ft 372 kts 300°
2026-05-06 18:45 44.86119 6.06191 26400 ft 399 kts 313°
2026-05-06 18:45 44.88387 6.03857 26684 ft 418 kts 319°
2026-05-06 18:45 44.90921 6.01686 26944 ft 434 kts 322°
2026-05-06 18:45 44.93593 5.99571 27218 ft 446 kts 324°
2026-05-06 18:46 44.96316 5.97456 27507 ft 457 kts 324°
2026-05-06 18:46 44.99130 5.95258 27768 ft 467 kts 324°
2026-05-06 18:46 45.01992 5.93003 28034 ft 476 kts 324°
2026-05-06 18:46 45.04879 5.90725 28698 ft 473 kts 324°
2026-05-06 18:47 45.07712 5.88477 29299 ft 473 kts 324°
2026-05-06 18:47 45.10592 5.86182 29691 ft 476 kts 324°
2026-05-06 18:47 45.13481 5.83878 30125 ft 478 kts 324°
2026-05-06 18:47 45.16374 5.81565 30514 ft 479 kts 324°
2026-05-06 18:48 45.19277 5.79238 30907 ft 480 kts 324°
2026-05-06 18:48 45.22178 5.76907 31354 ft 478 kts 324°
2026-05-06 18:48 45.25083 5.74566 31807 ft 478 kts 325°
2026-05-06 18:48 45.27968 5.72238 32221 ft 477 kts 325°
2026-05-06 18:49 45.30864 5.69899 32640 ft 477 kts 325°
2026-05-06 18:49 45.33710 5.67598 33055 ft 477 kts 325°
2026-05-06 18:49 45.36589 5.65267 33521 ft 475 kts 325°
2026-05-06 18:49 45.39450 5.62947 34074 ft 473 kts 325°
2026-05-06 18:50 45.42299 5.60633 34553 ft 470 kts 325°
2026-05-06 18:50 45.45150 5.58313 35071 ft 468 kts 326°
2026-05-06 18:50 45.47980 5.56005 35569 ft 467 kts 326°
2026-05-06 18:50 45.50793 5.53708 36088 ft 465 kts 326°
2026-05-06 18:51 45.53601 5.51413 36608 ft 463 kts 326°
2026-05-06 18:51 45.56360 5.49156 37144 ft 461 kts 326°
2026-05-06 18:51 45.59138 5.46879 37664 ft 459 kts 326°
2026-05-06 18:51 45.61915 5.44594 37892 ft 464 kts 326°
2026-05-06 18:52 45.64729 5.42281 37935 ft 466 kts 326°
2026-05-06 18:52 45.67512 5.40022 37929 ft 455 kts 327°
2026-05-06 18:52 45.70253 5.37803 37930 ft 453 kts 326°
2026-05-06 18:53 45.75812 5.33159 37935 ft 471 kts 326°
2026-05-06 18:53 45.81553 5.28362 37937 ft 483 kts 326°
2026-05-06 18:54 45.87409 5.23494 37938 ft 490 kts 326°
2026-05-06 18:54 45.93250 5.18640 37932 ft 472 kts 326°
2026-05-06 18:54 45.96037 5.16327 37933 ft 452 kts 326°
2026-05-06 18:55 45.98713 5.14103 37939 ft 434 kts 326°
2026-05-06 18:55 46.01233 5.12001 37928 ft 417 kts 326°
2026-05-06 18:55 46.03696 5.09946 37926 ft 401 kts 326°
2026-05-06 18:55 46.06143 5.08177 37934 ft 387 kts 332°
2026-05-06 18:56 46.08563 5.06654 37926 ft 371 kts 332°
2026-05-06 18:56 46.10879 5.05194 37923 ft 355 kts 332°
2026-05-06 18:56 46.13094 5.03795 37924 ft 338 kts 332°
2026-05-06 18:56 46.15169 5.02480 37921 ft 321 kts 332°
2026-05-06 18:57 46.17144 5.01150 37728 ft 308 kts 325°
2026-05-06 18:57 46.18786 4.99213 36840 ft 308 kts 299°
2026-05-06 18:57 46.19468 4.96299 35641 ft 315 kts 264°
2026-05-06 18:57 46.18777 4.93344 34873 ft 317 kts 230°
2026-05-06 18:58 46.17000 4.91558 34460 ft 316 kts 197°
2026-05-06 18:58 46.14823 4.91579 34139 ft 319 kts 163°
2026-05-06 18:58 46.13000 4.93390 33720 ft 326 kts 129°
2026-05-06 18:58 46.12159 4.96409 33231 ft 330 kts 94°
2026-05-06 18:59 46.12612 4.99600 32787 ft 327 kts 58°
2026-05-06 18:59 46.14185 5.01845 32374 ft 318 kts 23°
2026-05-06 18:59 46.16290 5.02391 31974 ft 306 kts 347°
2026-05-06 18:59 46.18133 5.01132 31527 ft 297 kts 312°
2026-05-06 19:00 46.19080 4.98572 31037 ft 293 kts 276°
2026-05-06 19:00 46.18756 4.95729 30515 ft 293 kts 239°
2026-05-06 19:00 46.17292 4.93731 29947 ft 295 kts 201°
2026-05-06 19:00 46.15292 4.93436 29343 ft 292 kts 162°
2026-05-06 19:01 46.13624 4.94948 28837 ft 284 kts 124°
2026-05-06 19:01 46.12991 4.97550 28335 ft 277 kts 85°
2026-05-06 19:01 46.13635 5.00088 27808 ft 272 kts 46°
2026-05-06 19:01 46.15242 5.01403 27287 ft 269 kts
2026-05-06 19:02 46.17013 5.00912 26804 ft 268 kts 326°
2026-05-06 19:02 46.17868 4.99707 26502 ft 268 kts 300°